Погода в Киркуке

Ирак     35°26′55″N   44°22′49″E
темп.,
°C
ветер,
м/с
пор.,
м/с
влажн.,
%
обл.,
%
осадки,
мм/ч
давл.,
гПа
погр.,
м
4 июля, пн
пн400:00+31св510270 0.0 996202
03:00+29св59320 0.0 997171
06:00+29св611330 0.0 998225
09:00+35св87220 0.0 998798
12:00+39всв43170 0.0 9982555
15:00+40ссз53140 0.0 9963604
18:00+39св87140 0.0 9961793
21:00+33ссв610220 0.0 998174
5 июля, вт
вт500:00+31св712260 0.0 998249
03:00+29св712280 0.0 998229
06:00+28св711270 0.0 999302
09:00+34св88190 0.0 999572
12:00+39ссв43140 0.0 9992049
15:00+41с64120 0.0 9973362
18:00+40с76120 0.0 9961953
21:00+34ссв59180 0.0 998143
6 июля, ср
ср600:00+32св59200 0.0 998140
03:00+30св612220 0.0 998207
06:00+29св510250 0.0 998211
09:00+35всв77190 0.0 999833
12:00+40в55140 0.0 9982765
15:00+42ююз5490 0.0 9973538
18:00+41юз53100 0.0 9962682
21:00+35з48150 0.0 999158
7 июля, чт
чт700:00+32зсз23170 0.0 99921
03:00+29зсз22190 0.0 99913
06:00+30всв12200 0.0 100114
09:00+36ююз22150 0.0 1001817
12:00+39зюз56110 0.0 10002898
15:00+40зюз5490 0.0 9993122
18:00+39з6590 0.0 9992904
21:00+34сз48140 0.0 1001127
8 июля, пт
пт800:00+31с33160 0.0 100134
03:00+30ссв33170 0.0 100120
06:00+30ссв11190 0.0 100111
09:00+35з44130 0.0 10011278
12:00+38зюз43110 0.0 10003187
15:00+39зюз54130 0.0 9993252
18:00+38з22150 0.0 9983073
21:00+33зсз11200 0.0 99912